Randolph AFB, TX

10:34 PM CST on January 17, 2018 (GMT -0600)
Randolph Air Force Base

Weather History for KRND - November, 2012

Change the Weather History Date:

Sunday, November 25, 2012

  Actual Average Record
Temperature  
Mean Temperature 60 °F -  
Max Temperature 74 °F 66 °F 83 °F (2017)
Min Temperature 47 °F 48 °F 33 °F (1996)
Degree Days  
Heating Degree Days 4    
Growing Degree Days 10 (Base 50)    
Moisture  
Dew Point 52 °F    
Average Humidity 73    
Maximum Humidity 94    
Minimum Humidity 43    
Precipitation  
Precipitation 0.00 in - - ()
Sea Level Pressure  
Sea Level Pressure 30.01 in    
Wind  
Wind Speed 6 mph (SSW)    
Max Wind Speed 15 mph    
Max Gust Speed 22 mph    
Visibility 10 miles    
Events      
Averages and records for this station are not official NWS values.
T = Trace of Precipitation, MM = Missing Value Source: NWS Daily Summary

Daily Weather History Graph

Daily Weather History Graph

Search for Another Location

Airport or City:

Trip Planner

Search our weather history database for the weather conditions in past years. The results will help you decide how hot, cold, wet, or windy it might be!

Date:

Astronomy

Nov. 25, 2012 Rise Set
Actual Time 7:05 AM CST 5:34 PM CST
Civil Twilight 6:40 AM CST 6:00 PM CST
Nautical Twilight 6:11 AM CST 6:29 PM CST
Astronomical Twilight 5:42 AM CST 6:57 PM CST
Moon 3:45 PM CST (11/25) 4:29 AM CST (11/25)
Length of Visible Light 11h 19m
Length of Day
10h 28m
Waxing Gibbous, 93% of the Moon is Illuminated
Nov 25
Waxing Gibbous
Nov 28
Full
Dec 6
Last Quarter
Dec 13
New
Dec 19
First Quarter

Hourly Weather History & Observations

Time (CST) Temp. Dew Point Humidity Pressure Visibility Wind Dir Wind Speed Gust Speed Precip Events Conditions
12:55 AM 49.5 °F 27.7 °F 43% 30.14 in 10.0 mi SSW 4.6 mph - N/A   Clear
1:55 AM 49.5 °F 29.8 °F 47% 30.12 in 10.0 mi SSW 4.6 mph - N/A   Clear
2:55 AM 47.5 °F 32.0 °F 55% 30.11 in 10.0 mi Calm Calm - N/A   Clear
3:55 AM 48.9 °F 36.9 °F 63% 30.09 in 10.0 mi WSW 3.5 mph - N/A   Clear
4:55 AM 48.7 °F 36.5 °F 63% 30.08 in 10.0 mi WSW 5.8 mph - N/A   Clear
5:55 AM 49.1 °F 36.9 °F 63% 30.08 in 10.0 mi WSW 3.5 mph - N/A   Clear
6:55 AM 47.5 °F 37.2 °F 68% 30.08 in 10.0 mi WNW 3.5 mph - N/A   Clear
7:55 AM 48.0 °F 39.9 °F 74% 30.10 in 10.0 mi Calm Calm - N/A   Clear
8:55 AM 56.5 °F 42.1 °F 59% 30.10 in 10.0 mi SW 6.9 mph - N/A   Clear
9:55 AM 62.2 °F 45.0 °F 53% 30.11 in 10.0 mi SSW 10.4 mph - N/A   Clear
10:55 AM 65.7 °F 48.9 °F 55% 30.09 in 10.0 mi SSW 8.1 mph - N/A   Clear
11:55 AM 68.7 °F 49.3 °F 50% 30.06 in 10.0 mi SW 10.4 mph - N/A   Clear
12:55 PM 71.8 °F 51.4 °F 49% 30.01 in 10.0 mi SSW 11.5 mph 18.4 mph N/A   Clear
1:55 PM 72.9 °F 53.1 °F 50% 29.98 in 10.0 mi South 12.7 mph 19.6 mph N/A   Clear
2:55 PM 74.1 °F 55.8 °F 53% 29.96 in 10.0 mi South 15.0 mph - N/A   Clear
3:55 PM 72.0 °F 57.9 °F 61% 29.94 in 10.0 mi SSW 12.7 mph 21.9 mph N/A   Scattered Clouds
4:55 PM 70.7 °F 58.1 °F 64% 29.94 in 10.0 mi South 12.7 mph - N/A   Scattered Clouds
5:55 PM 67.8 °F 58.3 °F 71% 29.94 in 10.0 mi South 8.1 mph - N/A   Partly Cloudy
6:55 PM 64.2 °F 59.0 °F 83% 29.95 in 10.0 mi South 6.9 mph - N/A   Partly Cloudy
7:55 PM 64.9 °F 59.7 °F 83% 29.96 in 10.0 mi SSW 4.6 mph - N/A   Partly Cloudy
8:14 PM 64.4 °F 59.0 °F 83% 29.96 in 10.0 mi SSW 4.6 mph - N/A   Mostly Cloudy
8:55 PM 64.8 °F 60.1 °F 85% 29.97 in 10.0 mi SSW 4.6 mph - N/A   Mostly Cloudy
9:21 PM 64.4 °F 60.8 °F 88% 29.97 in 10.0 mi SE 8.1 mph - N/A   Mostly Cloudy
9:26 PM 62.6 °F 60.8 °F 94% 29.98 in 10.0 mi South 4.6 mph - N/A   Scattered Clouds
9:47 PM 62.6 °F 60.8 °F 94% 29.98 in 10.0 mi South 4.6 mph - N/A   Mostly Cloudy
9:50 PM 62.6 °F 60.8 °F 94% 29.97 in 10.0 mi South 4.6 mph - N/A   Scattered Clouds
9:52 PM 62.6 °F 60.8 °F 94% 29.97 in 10.0 mi South 4.6 mph - N/A   Mostly Cloudy
9:55 PM 63.5 °F 60.1 °F 89% 29.97 in 10.0 mi SSW 5.8 mph - N/A   Mostly Cloudy
9:58 PM 64.4 °F 60.8 °F 88% 29.97 in 10.0 mi South 5.8 mph - N/A   Scattered Clouds
10:03 PM 64.4 °F 60.8 °F 88% 29.97 in 10.0 mi South 4.6 mph - N/A   Mostly Cloudy
10:55 PM 63.9 °F 60.3 °F 88% 29.97 in 10.0 mi SSW 5.8 mph - N/A   Mostly Cloudy
10:59 PM 64.4 °F 60.8 °F 88% 29.97 in 10.0 mi SSW 5.8 mph - N/A   Scattered Clouds
11:12 PM 64.4 °F 60.8 °F 88% 29.97 in 10.0 mi SSW 4.6 mph - N/A   Mostly Cloudy
11:19 PM 64.4 °F 60.8 °F 88% 29.97 in 10.0 mi SSW 5.8 mph - N/A   Mostly Cloudy
11:53 PM 64.4 °F 62.6 °F 94% 29.96 in 10.0 mi Variable 5.8 mph - N/A   Overcast
11:55 PM 64.0 °F 61.9 °F 93% 29.96 in 10.0 mi SW 5.8 mph - N/A   Overcast